#timestamp,LO_Frequency,Hit 
1498737615.9,286046998.0,N
1498737635.7,286046999.1,N
1498737655.6,286046995.4,N
1498737675.4,286046995.2,N
1498737695.2,286046998.8,N
1498737715.1,286047003.1,N
1498737716.0,286047003.1,N
1498737735.8,286047001.8,N
1498737755.6,286047002.0,N
1498737775.5,286046999.8,N
1498737795.3,286047007.1,N
1498737815.1,286047006.1,N
1498737835.9,286047005.1,N
1498737855.7,286047008.1,N
1498737875.5,286047010.5,N
1498737895.3,286047007.7,N
1498737915.2,286047006.3,N
1498737935.0,286047002.1,N
1498737935.9,286047002.1,N
1498737955.7,286046998.2,N
1498737975.6,286047000.2,N
1498737995.4,286047001.6,N
1498738015.2,286047006.4,N
1498738035.1,286047003.9,N
1498738036.0,286047003.9,N
1498738055.8,286047001.8,N
1498738075.6,286046999.4,N
1498738095.5,286046993.3,N
1498738115.3,286046993.8,N
1498738135.1,286046999.2,N
1498738155.9,286046996.8,N
1498738175.7,286046994.9,N
1498738195.5,286046995.4,N
1498738215.3,286047000.5,N
1498738235.2,286047000.9,N
1498738255.0,286046997.0,N
1498738255.9,286046997.0,N
1498738275.7,286046996.0,N
1498738295.6,286046994.4,N
1498738315.4,286046996.4,N
1498738335.2,286046999.8,N
1498738355.1,286047006.0,N
1498738356.0,286047006.0,N
1498738375.8,286047010.1,N
1498738395.6,286047012.1,N
1498738415.5,286047011.3,N
1498738435.3,286047011.4,N
1498738455.1,286047009.8,N
1498738475.9,286047006.5,N
1498738495.7,286047004.4,N
1498738515.5,286047002.0,N
1498738535.4,286046999.4,N
1498738555.2,286046996.4,N
1498738575.0,286046995.4,N
1498738575.9,286046995.4,N
1498738595.8,286046994.0,N
1498738615.6,286046993.9,N
1498738635.4,286046993.2,N
1498738655.2,286046992.4,N
1498738675.1,286046995.4,N
1498738676.0,286046995.4,N
1498738695.8,286047000.8,N
1498738715.6,286047007.0,N
1498738735.5,286047013.1,N
1498738755.3,286047016.1,N
1498738775.1,286047016.9,N
1498738795.9,286047013.8,N
1498738815.7,286047010.6,N
1498738835.5,286047006.1,N
1498738855.4,286047009.1,N
1498738875.2,286047003.5,N
1498738895.0,286046999.8,N
1498738895.9,286046999.8,N
1498738915.8,286046999.6,N
1498738935.6,286046993.3,N
1498738955.4,286046993.7,N
1498738975.2,286046998.8,N
1498738995.1,286047002.1,N
1498738996.0,286047002.1,N
1498739015.8,286047003.3,N
1498739035.6,286047001.7,N
1498739055.5,286047002.1,N
1498739075.3,286047003.1,N
1498739095.1,286047006.3,N
1498739115.9,286047009.0,N
1498739135.7,286047011.0,N
1498739155.5,286047018.6,N
1498739175.4,286047019.2,N
1498739195.2,286047018.7,N
1498739215.0,286047023.4,N
1498739215.9,286047023.4,N
1498739235.8,286047019.5,N
1498739255.6,286047014.1,N
1498739275.4,286047013.6,N
1498739295.3,286047006.9,N
1498739315.1,286047001.9,N
1498739316.0,286047001.9,N
1498739335.8,286046998.1,N
1498739355.7,286046995.3,N
1498739375.5,286046998.8,N
1498739395.3,286047001.2,N
1498739415.1,286047004.6,N
1498739435.9,286047013.3,N
1498739455.7,286047020.1,N
1498739475.5,286047020.6,N
1498739495.4,286047019.4,N
1498739515.2,286047015.1,N
1498739535.0,286047011.4,N
1498739535.9,286047011.4,N
1498739555.8,286047004.8,N
1498739575.6,286047004.3,N
1498739595.4,286047000.9,N
1498739615.3,286047000.8,N
1498739635.1,286047012.1,N
1498739636.0,286047012.1,N
1498739655.8,286047018.4,N
1498739675.7,286047020.4,N
1498739695.5,286047022.9,N
1498739715.3,286047028.4,N
1498739735.1,286047023.8,N
1498739755.9,286047016.2,N
1498739775.7,286047015.1,N
1498739795.5,286047009.9,N
1498739815.4,286047004.9,N
1498739835.2,286047001.9,N
1498739855.0,286047002.8,N
1498739855.9,286047002.8,N
1498739875.8,286046998.2,N
1498739895.6,286047002.0,N
1498739915.4,286047005.5,N
1498739935.3,286047004.2,N
1498739955.1,286046998.5,N
1498739956.0,286046998.5,N
1498739975.8,286046995.4,N
1498739995.7,286046995.2,N
1498740015.5,286046998.0,N
1498740035.3,286046997.3,N
1498740055.1,286046997.7,N
1498740075.9,286046999.2,N
1498740095.7,286046997.5,N
1498740115.5,286046999.5,N
1498740135.4,286046997.1,N
1498740155.2,286046993.8,N
1498740175.0,286046997.2,N
1498740175.9,286046997.2,N
1498740195.8,286046996.1,N
1498740215.6,286046993.9,N
1498740235.4,286046992.8,N
1498740255.3,286046989.3,N
1498740275.1,286046989.8,N
1498740276.0,286046989.8,N
1498740295.8,286046991.6,N
1498740315.7,286046989.1,N
1498740335.5,286046991.0,N
1498740355.3,286046991.3,N
1498740375.1,286046991.9,N
1498740395.9,286047001.1,N
1498740415.7,286047003.1,N
1498740435.5,286046998.8,N
1498740455.4,286046994.5,N
1498740475.2,286046991.0,N
1498740495.0,286046992.2,N
1498740495.9,286046992.2,N
1498740515.8,286046994.5,N
1498740535.6,286046998.7,N
1498740555.4,286047003.5,N
1498740575.3,286047017.7,N
1498740595.1,286047032.3,N
1498740596.0,286047032.3,N
1498740615.8,286047039.0,N
1498740635.7,286047037.5,N
1498740655.5,286047037.4,N
1498740675.3,286047033.1,N
1498740695.2,286047031.8,N
1498740715.9,286047028.9,N
1498740735.7,286047021.2,N
1498740755.5,286047014.4,N
1498740775.4,286047009.0,N
1498740795.2,286047002.3,N
1498740815.0,286046997.0,N
1498740815.9,286046997.0,N
1498740835.8,286046993.9,N
1498740855.6,286046991.8,N
1498740875.4,286046993.2,N
1498740895.3,286046992.2,N
1498740915.1,286046995.4,N
1498740916.0,286046995.4,N
1498740935.8,286046995.4,N
1498740955.7,286046993.4,N
1498740975.5,286046992.2,N
1498740995.3,286046998.7,N
1498741015.2,286047001.0,N
1498741035.9,286047008.7,N
1498741055.7,286047010.0,N
1498741075.5,286047015.5,N
1498741095.4,286047018.8,N
1498741115.2,286047015.4,N
1498741135.0,286047015.1,N
1498741135.9,286047015.1,N
1498741155.8,286047018.1,N
1498741175.6,286047018.8,N
1498741195.4,286047016.4,N
